Weather History for KHYA - August, 2013

Change the Weather History Date:

Saturday, August 31, 2013

  Actual Average Record
Temperature  
Mean Temperature 74 °F -  
Max Temperature 77 °F 76 °F 94 °F (1953)
Min Temperature 70 °F 59 °F 34 °F (1965)
Cooling Degree Days 8    
Growing Degree Days 24 (Base 50)    
Moisture  
Dew Point 69 °F    
Average Humidity 89    
Maximum Humidity 94    
Minimum Humidity 76    
Precipitation  
Precipitation 0.00 in - - ()
Sea Level Pressure  
Sea Level Pressure 29.85 in    
Wind  
Wind Speed 14 mph (SW)    
Max Wind Speed 21 mph    
Max Gust Speed 31 mph    
Visibility 8 miles    
Events Rain    
Averages and records for this station are not official NWS values.
T = Trace of Precipitation, MM = Missing Value Source: NWS Daily Summary

Daily Weather History Graph

Daily Weather History Graph

Search for Another Location

Airport or City:

Trip Planner

Search our weather history database for the weather conditions in past years. The results will help you decide how hot, cold, wet, or windy it might be!

Date:

Astronomy

Aug. 31, 2013 Rise Set
Actual Time 6:06 AM EDT 7:15 PM EDT
Civil Twilight 5:37 AM EDT 7:44 PM EDT
Nautical Twilight 5:03 AM EDT 8:18 PM EDT
Astronomical Twilight 4:27 AM EDT 8:54 PM EDT
Moon 1:30 AM EDT (8/31) 4:13 PM EDT (8/31)
Length of Visible Light 14h 06m
Length of Day
13h 09m
Waning Crescent, 21% of the Moon is Illuminated
Aug 31
Waning Crescent
Sep 5
New
Sep 12
First Quarter
Sep 19
Full
Sep 26
Last Quarter

Hourly Weather History & Observations

Time (EDT) Temp. Dew Point Humidity Pressure Visibility Wind Dir Wind Speed Gust Speed Precip Events Conditions
12:56 AM 70.0 °F 68.0 °F 93% 29.86 in 8.0 mi WSW 16.1 mph - N/A   Overcast
1:56 AM 70.0 °F 68.0 °F 93% 29.85 in 8.0 mi SW 15.0 mph - N/A   Overcast
2:56 AM 71.1 °F 69.1 °F 93% 29.84 in 7.0 mi SW 15.0 mph - N/A   Overcast
3:56 AM 71.1 °F 69.1 °F 93% 29.84 in 7.0 mi SW 12.7 mph 19.6 mph N/A   Overcast
4:56 AM 71.1 °F 69.1 °F 93% 29.84 in 7.0 mi WSW 10.4 mph - N/A   Overcast
5:56 AM 71.1 °F 69.1 °F 93% 29.85 in 7.0 mi SW 9.2 mph - N/A   Overcast
6:56 AM 71.1 °F 69.1 °F 93% 29.85 in 6.0 mi WSW 12.7 mph - N/A   Overcast
7:56 AM 72.0 °F 69.1 °F 91% 29.85 in 6.0 mi SW 15.0 mph - N/A   Overcast
8:56 AM 73.0 °F 69.1 °F 87% 29.86 in 8.0 mi WSW 10.4 mph 18.4 mph N/A   Overcast
9:56 AM 73.9 °F 69.1 °F 85% 29.86 in 9.0 mi SW 15.0 mph - N/A   Overcast
10:06 AM 73.4 °F 69.8 °F 88% 29.86 in 9.0 mi SW 11.5 mph 21.9 mph N/A   Overcast
10:56 AM 75.9 °F 69.1 °F 79% 29.86 in 10.0 mi SW 13.8 mph - N/A   Mostly Cloudy
11:56 AM 77.0 °F 69.1 °F 76% 29.85 in 10.0 mi WSW 20.7 mph 27.6 mph N/A   Scattered Clouds
12:56 PM 73.9 °F 69.1 °F 85% 29.86 in 9.0 mi WSW 18.4 mph 29.9 mph N/A   Partly Cloudy
1:13 PM 73.4 °F 69.8 °F 88% 29.85 in 8.0 mi SW 18.4 mph 31.1 mph N/A   Mostly Cloudy
1:20 PM 73.4 °F 69.8 °F 88% 29.84 in 8.0 mi SW 20.7 mph 29.9 mph N/A   Mostly Cloudy
1:56 PM 73.9 °F 69.1 °F 85% 29.85 in 8.0 mi SW 19.6 mph 26.5 mph N/A   Overcast
2:56 PM 73.9 °F 69.1 °F 85% 29.85 in 8.0 mi SW 17.3 mph 27.6 mph N/A   Overcast
3:56 PM 73.9 °F 70.0 °F 87% 29.85 in 8.0 mi SW 13.8 mph 21.9 mph N/A   Overcast
4:56 PM 73.9 °F 70.0 °F 87% 29.85 in 8.0 mi SSW 16.1 mph 21.9 mph N/A   Overcast
5:08 PM 73.4 °F 69.8 °F 88% 29.84 in 8.0 mi SSW 15.0 mph - 0.00 in Rain Light Rain
5:16 PM 73.4 °F 69.8 °F 88% 29.84 in 8.0 mi SSW 12.7 mph - 0.00 in Rain Light Rain
5:56 PM 73.9 °F 70.0 °F 87% 29.85 in 8.0 mi SW 12.7 mph - 0.00 in   Overcast
6:44 PM 73.4 °F 69.8 °F 88% 29.84 in 8.0 mi SSW 10.4 mph - N/A   Overcast
6:56 PM 73.0 °F 70.0 °F 90% 29.85 in 8.0 mi SSW 11.5 mph 19.6 mph N/A   Overcast
7:36 PM 71.6 °F 69.8 °F 94% 29.85 in 8.0 mi SSW 11.5 mph 18.4 mph N/A   Mostly Cloudy
7:56 PM 72.0 °F 70.0 °F 93% 29.86 in 8.0 mi SSW 10.4 mph - N/A   Mostly Cloudy
8:03 PM 71.6 °F 69.8 °F 94% 29.86 in 9.0 mi SSW 9.2 mph - N/A   Scattered Clouds
8:56 PM 72.0 °F 69.1 °F 91% 29.86 in 9.0 mi SSW 12.7 mph - N/A   Clear
9:56 PM 72.0 °F 69.1 °F 91% 29.88 in 9.0 mi SSW 10.4 mph - N/A   Clear
10:56 PM 72.0 °F 69.1 °F 91% 29.88 in 9.0 mi SSW 10.4 mph - N/A   Scattered Clouds
11:52 PM 71.6 °F 69.8 °F 94% 29.86 in 9.0 mi SSW 16.1 mph 21.9 mph 0.00 in   Mostly Cloudy
11:56 PM 72.0 °F 70.0 °F 93% 29.87 in 9.0 mi SSW 12.7 mph 21.9 mph 0.00 in   Mostly Cloudy